Location: Poughquag
(41.6090°N, 73.6820°W)
Time: 15:02:42
(UTC-05:00)

Vanguard 1 Rocket - Visible Passes

Search period start: 26 February 2020 00:00
Search period end: 07 March 2020 00:00
Orbit: 650 x 4226 km, 34.3° (Epoch: 25 February)

Date Brightness Start Highest point End Pass type
(mag) Time Alt. Az. Time Alt. Az. Time Alt. Az.
26 Feb 9.6 03:10:45 12° ESE 03:10:45 12° ESE 03:11:08 10° ESE visible
26 Feb 8.2 05:28:02 15° WSW 05:30:35 23° SSW 05:34:04 10° SSE visible
27 Feb 8.0 04:20:50 32° S 04:20:50 32° S 04:24:13 10° SE visible
27 Feb 11.4 22:05:10 10° SSW 22:05:17 10° SSW 22:05:17 10° SSW visible
28 Feb 9.5 03:13:39 13° ESE 03:13:39 13° ESE 03:14:13 10° ESE visible
28 Feb 8.5 05:30:56 13° WSW 05:33:26 18° SSW 05:36:26 10° SSE visible
28 Feb 11.1 20:54:09 10° S 20:58:25 14° S 20:58:25 14° S visible
29 Feb 8.2 04:23:46 29° S 04:23:46 29° S 04:27:03 10° SE visible
29 Feb 11.1 19:47:28 10° SSE 19:51:36 11° SE 19:51:36 11° SE visible
29 Feb 11.2 22:05:31 10° SSW 22:08:55 15° SSW 22:08:55 15° SSW visible
01 Mar 9.5 03:16:36 14° SE 03:16:36 14° SE 03:17:14 10° ESE visible
01 Mar 8.8 05:33:53 10° WSW 05:36:10 13° SSW 05:38:21 10° S visible
01 Mar 10.9 20:53:12 10° SSW 21:02:09 21° S 21:02:09 21° S visible
02 Mar 8.4 04:26:45 24° S 04:26:45 24° S 04:29:44 10° SSE visible
02 Mar 10.9 19:42:53 10° S 19:54:32 17° SE 19:55:26 17° SE visible
02 Mar 11.0 22:06:21 10° SW 22:12:46 21° SSW 22:12:46 21° SSW visible
03 Mar 9.5 03:19:39 13° SE 03:19:39 13° SE 03:20:11 10° SE visible
03 Mar 10.6 20:53:09 10° SSW 21:06:04 28° S 21:06:04 28° S visible
03 Mar 11.3 23:22:02 10° WSW 23:23:25 13° SW 23:23:25 13° SW visible
04 Mar 8.7 04:29:52 19° SSW 04:29:52 19° SSW 04:32:12 10° SSE visible
04 Mar 10.6 19:41:24 10° S 19:57:11 23° SE 19:59:25 23° SE visible
04 Mar 10.7 22:07:33 10° SW 22:16:46 28° SSW 22:16:46 28° SSW visible
05 Mar 9.6 03:22:48 11° SE 03:22:48 11° SE 03:23:02 10° SE visible
05 Mar 10.9 18:32:25 10° SSE 18:43:54 16° SE 18:52:47 11° ESE visible
05 Mar 10.4 20:53:41 10° SSW 21:10:07 36° S 21:10:07 36° S visible
05 Mar 11.2 23:23:59 10° WSW 23:27:28 17° WSW 23:27:28 17° WSW visible
06 Mar 9.1 04:33:05 14° SSW 04:33:05 14° SSW 04:34:18 10° S visible
06 Mar 10.4 19:41:01 10° SSW 19:59:45 30° SSE 20:03:30 28° SE visible
06 Mar 10.5 22:09:02 10° SW 22:20:50 35° SW 22:20:50 35° SW visible
